This demonstration page uses our WeatherBlox Daily Observations layout. Learn more.

Left ArrowRight Arrow

39.12711, -84.51439

Hourly Observations for August 7, 2018

Temp ( °F °C ) Dew Point ( °F °C ) Humidity (%) Winds ( mph kmh ) Pressure ( in mb ) Visibility ( mi km ) Precip ( " mm )
12:53 am 00:53 Clear 74 23.3 74 23.3 100 100 N N/A 30.01 1016 9 14 N/A
1:53 am 01:53 Clear 74 23.3 74 23.3 100 100 N N/A 30.04 1017 10 16 N/A
2:53 am 02:53 Clear 74 23.3 74 23.3 100 100 N N/A 30.02 1017 8 13 N/A
3:51 am 03:51 Cloudy with Nearby Thunderstorms 75 24 73 23 94 94 N 18 30 30.03 1017 10 16 N/A
3:53 am 03:53 Cloudy with Nearby Thunderstorms 76 24.4 72 22.2 88 88 N 16 26 30.05 1018 10 16 N/A
4:00 am 04:00 Cloudy with Thunderstorms 76 24.4 69 20.6 79 79 N 10 17 30.03 1017 10 16 N/A
4:15 am 04:15 Cloudy with Nearby Thunderstorms 75 23.9 68 20 79 79 N 8 13 30.06 1018 9 14 N/A
4:30 am 04:30 Cloudy with Rain 73 22.8 68 20 84 84 NNW 8 13 30.06 1018 5 8 0.03 0.76
4:53 am 04:53 Partly Cloudy 72 22.2 69 20.6 91 91 ESE 3 6 30.05 1018 10 16 0.03 0.76
5:53 am 05:53 Partly Cloudy 70 21.1 70 21.1 100 100 N N/A 30.04 1017 10 16 0.01 0.25
6:53 am 06:53 Sunny with Light Rain 71 21.7 70 21.1 96 96 N N/A 30.01 1016 10 16 0.01 0.25
7:53 am 07:53 Mostly Sunny 71 21.7 70 21.1 96 96 SSW 5 7 30.01 1016 10 16 0.01 0.25
8:53 am 08:53 Mostly Cloudy 73 22.8 71 21.7 94 94 S 3 6 30.03 1017 10 16 N/A
9:53 am 09:53 Sunny 74 23.3 72 22.2 94 94 S 3 6 30.03 1017 10 16 N/A
10:53 am 10:53 Sunny 77 25 72 22.2 85 85 S 6 9 30.04 1017 10 16 N/A
11:53 am 11:53 Partly Cloudy 81 27.2 74 23.3 79 79 SSW 8 13 30.02 1017 10 16 N/A
12:53 pm 12:53 Mostly Sunny 84 28.9 76 24.4 77 77 S 8 13 29.99 1016 10 16 N/A
1:53 pm 13:53 Partly Cloudy 85 29.4 75 23.9 72 72 SSW 10 17 29.99 1016 10 16 N/A
2:53 pm 14:53 Partly Cloudy 86 30 77 25 75 75 S 10 17 29.98 1015 10 16 N/A
3:53 pm 15:53 Partly Cloudy 85 29.4 76 24.4 75 75 S 8 13 29.92 1013 10 16 N/A
4:01 pm 16:01 Mostly Cloudy with Thunderstorms 83 28.3 76 24.4 79 79 SW 10 17 29.91 1013 10 16 N/A
4:13 pm 16:13 Mostly Cloudy with Thunderstorms 76 24.4 70 21.1 82 82 SSW 17 28 29.94 1014 3 5 0.08 2.03
4:53 pm 16:53 Cloudy with Thunderstorms 73 22.8 73 22.8 100 100 SSW 13 20 29.96 1015 10 16 0.19 4.83
5:08 pm 17:08 Mostly Cloudy with Light Rain 73 22.8 73 22.8 100 100 S 5 7 29.94 1014 10 16 N/A
5:53 pm 17:53 Mostly Cloudy with Light Rain 73 22.8 73 22.8 100 100 S 5 7 29.96 1015 8 13 0.04 1.02
6:53 pm 18:53 Sunny 74 23.3 73 22.8 97 97 ESE 3 6 29.96 1015 10 16 0.01 0.25
7:53 pm 19:53 Sunny 74 23.3 73 22.8 97 97 SSW 7 11 29.97 1015 10 16 N/A
8:53 pm 20:53 Clear 73 22.8 72 22.2 96 96 N N/A 29.97 1015 10 16 N/A
9:53 pm 21:53 Clear 72 22.2 72 22.2 100 100 SW 5 7 29.99 1016 10 16 N/A
10:53 pm 22:53 Clear 73 22.8 73 22.8 100 100 N N/A 29.98 1015 10 16 N/A
11:53 pm 23:53 Mostly Clear 72 22.2 72 22.2 100 100 N N/A 29.97 1015 10 16 N/A

Powered by AerisWeather